| time (UTC) | temp C | wind direction | speed KPH | gust KPH | rain 1hr cm | rain 24hr cm | rain mn cm | humidity % | barometer mb |
| 20260508111549 | 2 | 243 | 4.8 | 9.7 | 0.00 | 0.00 | 0.00 | 91 | 1017.8 |
| 20260508110040 | 2 | 220 | 3.2 | 9.7 | 0.00 | 0.00 | 0.00 | 91 | 1017.7 |
| 20260508104539 | 2 | 237 | 6.4 | 9.7 | 0.00 | 0.00 | 0.00 | 91 | 1017.6 |
| 20260508103041 | 2 | 222 | 4.8 | 8.0 | 0.00 | 0.00 | 0.00 | 91 | 1017.5 |
| 20260508101548 | 2 | 239 | 3.2 | 6.4 | 0.00 | 0.00 | 0.00 | 91 | 1017.5 |
| 20260508100045 | 2 | 223 | 6.4 | 12.9 | 0.00 | 0.00 | 0.00 | 90 | 1017.3 |
| 20260508094540 | 2 | 229 | 6.4 | 9.7 | 0.00 | 0.00 | 0.00 | 91 | 1017.2 |
| 20260508093040 | 2 | 218 | 3.2 | 9.7 | 0.00 | 0.00 | 0.00 | 90 | 1017.1 |
| 20260508091605 | 2 | 231 | 3.2 | 9.7 | 0.00 | 0.00 | 0.00 | 90 | 1017.1 |
| 20260508090058 | 2 | 241 | 4.8 | 8.0 | 0.00 | 0.00 | 0.00 | 90 | 1017.0 |
| 20260508084542 | 3 | 241 | 4.8 | 8.0 | 0.00 | 0.00 | 0.00 | 90 | 1016.9 |
| 20260508083044 | 3 | 242 | 4.8 | 9.7 | 0.00 | 0.00 | 0.00 | 90 | 1016.8 |
| 20260508081547 | 3 | 226 | 4.8 | 8.0 | 0.00 | 0.00 | 0.00 | 90 | 1016.7 |
| 20260508080041 | 3 | 233 | 4.8 | 9.7 | 0.00 | 0.00 | 0.00 | 90 | 1016.7 |
| 20260508074541 | 3 | 225 | 4.8 | 8.0 | 0.00 | 0.00 | 0.00 | 89 | 1016.7 |
| 20260508073040 | 3 | 229 | 3.2 | 8.0 | 0.00 | 0.00 | 0.00 | 90 | 1016.5 |
| 20260508071542 | 3 | 231 | 6.4 | 9.7 | 0.00 | 0.00 | 0.00 | 89 | 1016.5 |
| 20260508070042 | 3 | 230 | 4.8 | 9.7 | 0.00 | 0.00 | 0.00 | 89 | 1016.4 |
| 20260508064549 | 4 | 233 | 3.2 | 8.0 | 0.00 | 0.00 | 0.00 | 89 | 1016.6 |
| 20260508063115 | 4 | 235 | 3.2 | 8.0 | 0.00 | 0.00 | 0.00 | 89 | 1016.5 |
| 20260508061544 | 4 | 247 | 4.8 | 8.0 | 0.00 | 0.00 | 0.00 | 89 | 1016.6 |
| 20260508060045 | 4 | 237 | 4.8 | 11.3 | 0.00 | 0.00 | 0.00 | 89 | 1016.7 |
| 20260508054543 | 5 | 243 | 4.8 | 8.0 | 0.00 | 0.00 | 0.00 | 88 | 1016.6 |
| 20260508053052 | 5 | 223 | 3.2 | 9.7 | 0.00 | 0.00 | 0.00 | 88 | 1016.6 |
| 20260508051606 | 5 | 237 | 3.2 | 9.7 | 0.00 | 0.00 | 0.00 | 88 | 1016.5 |
| 20260508050050 | 5 | 233 | 3.2 | 8.0 | 0.00 | 0.00 | 0.00 | 88 | 1016.5 |
| 20260508044546 | 5 | 235 | 3.2 | 6.4 | 0.00 | 0.00 | 0.00 | 87 | 1016.6 |
| 20260508043040 | 5 | 211 | 3.2 | 6.4 | 0.00 | 0.00 | 0.00 | 87 | 1016.6 |
| 20260508041546 | 6 | 225 | 3.2 | 8.0 | 0.00 | 0.00 | 0.00 | 87 | 1016.5 |
| 20260508040045 | 6 | 206 | 3.2 | 6.4 | 0.00 | 0.00 | 0.00 | 86 | 1016.5 |
| 20260508034546 | 6 | 233 | 3.2 | 8.0 | 0.00 | 0.00 | 0.00 | 86 | 1016.5 |
| 20260508033048 | 6 | 212 | 3.2 | 6.4 | 0.00 | 0.00 | 0.00 | 85 | 1016.4 |
| 20260508031541 | 7 | 218 | 3.2 | 9.7 | 0.00 | 0.00 | 0.00 | 84 | 1016.2 |
| 20260508030045 | 7 | 231 | 3.2 | 6.4 | 0.00 | 0.00 | 0.00 | 84 | 1016.1 |
| 20260508024539 | 7 | 243 | 3.2 | 6.4 | 0.00 | 0.00 | 0.00 | 83 | 1015.8 |
| 20260508023038 | 8 | 240 | 3.2 | 9.7 | 0.00 | 0.00 | 0.00 | 82 | 1015.7 |
| 20260508021550 | 8 | 218 | 3.2 | 9.7 | 0.00 | 0.00 | 0.00 | 80 | 1015.3 |
| 20260508020040 | 8 | 233 | 4.8 | 8.0 | 0.00 | 0.00 | 0.00 | 79 | 1015.1 |
| 20260508014539 | 9 | 212 | 3.2 | 8.0 | 0.00 | 0.03 | 0.00 | 77 | 1014.9 |
| 20260508013046 | 10 | 233 | 4.8 | 8.0 | 0.00 | 0.03 | 0.00 | 76 | 1014.6 |
| 20260508011549 | 10 | 237 | 4.8 | 9.7 | 0.00 | 0.03 | 0.00 | 74 | 1014.4 |
| 20260508010058 | 11 | 235 | 4.8 | 9.7 | 0.00 | 0.03 | 0.00 | 73 | 1014.2 |
| 20260508004545 | 11 | 212 | 3.2 | 12.9 | 0.00 | 0.08 | 0.00 | 71 | 1014.0 |
| 20260508003046 | 11 | 210 | 4.8 | 11.3 | 0.00 | 0.08 | 0.00 | 70 | 1013.8 |
| 20260508001546 | 12 | 219 | 3.2 | 12.9 | 0.00 | 0.08 | 0.00 | 69 | 1013.6 |
| 20260508000047 | 12 | 207 | 4.8 | 12.9 | 0.00 | 0.08 | 0.00 | 67 | 1013.2 |
| 20260507234541 | 14 | 200 | 4.8 | 9.7 | 0.00 | 0.13 | 0.00 | 58 | 1013.0 |
| 20260507233042 | 15 | 221 | 3.2 | 8.0 | 0.00 | 0.13 | 0.00 | 56 | 1012.9 |
| 20260507231543 | 15 | 233 | 4.8 | 9.7 | 0.00 | 0.13 | 0.00 | 50 | 1012.9 |
| 20260507230105 | 16 | 202 | 3.2 | 9.7 | 0.00 | 0.13 | 0.00 | 49 | 1012.8 |
| 20260507224545 | 16 | 156 | 4.8 | 12.9 | 0.00 | 0.15 | 0.00 | 42 | 1012.9 |
| 20260507223131 | 16 | 0 | 3.2 | 9.7 | 0.00 | 0.15 | 0.00 | 42 | 1012.5 |
| 20260507221539 | 16 | 204 | 6.4 | 12.9 | 0.00 | 0.15 | 0.00 | 44 | 1012.5 |
| 20260507220046 | 16 | 0 | 1.6 | 9.7 | 0.00 | 0.15 | 0.00 | 44 | 1012.4 |
| 20260507214554 | 16 | 0 | 3.2 | 11.3 | 0.00 | 0.18 | 0.00 | 44 | 1012.1 |
| 20260507213046 | 17 | 322 | 1.6 | 17.7 | 0.00 | 0.18 | 0.00 | 44 | 1012.1 |
| 20260507211547 | 17 | 249 | 4.8 | 14.5 | 0.00 | 0.18 | 0.00 | 43 | 1011.8 |
| 20260507210046 | 17 | 285 | 1.6 | 14.5 | 0.00 | 0.18 | 0.00 | 42 | 1011.8 |
| 20260507204542 | 17 | 222 | 6.4 | 14.5 | 0.00 | 0.20 | 0.00 | 42 | 1011.6 |
| 20260507203046 | 17 | 234 | 3.2 | 16.1 | 0.00 | 0.20 | 0.00 | 41 | 1011.8 |
| 20260507201557 | 17 | 290 | 8.0 | 19.3 | 0.00 | 0.20 | 0.00 | 41 | 1011.8 |
| 20260507200054 | 18 | 260 | 3.2 | 19.3 | 0.00 | 0.20 | 0.00 | 44 | 1011.9 |
| 20260507194541 | 18 | 344 | 3.2 | 14.5 | 0.00 | 0.20 | 0.00 | 45 | 1012.1 |
| 20260507193051 | 18 | 292 | 1.6 | 16.1 | 0.00 | 0.20 | 0.00 | 46 | 1012.3 |
| 20260507191547 | 17 | 252 | 6.4 | 19.3 | 0.00 | 0.20 | 0.00 | 46 | 1012.3 |
| 20260507190051 | 17 | 220 | 3.2 | 11.3 | 0.00 | 0.20 | 0.00 | 49 | 1012.6 |
| 20260507184543 | 16 | 299 | 6.4 | 14.5 | 0.00 | 0.25 | 0.00 | 51 | 1013.0 |
| 20260507183042 | 16 | 0 | 1.6 | 11.3 | 0.00 | 0.25 | 0.00 | 52 | 1013.0 |
| 20260507181547 | 16 | 22 | 3.2 | 14.5 | 0.00 | 0.25 | 0.00 | 52 | 1012.9 |
| 20260507180039 | 16 | 285 | 4.8 | 22.5 | 0.00 | 0.25 | 0.00 | 52 | 1013.2 |
| 20260507174554 | 16 | 216 | 6.4 | 17.7 | 0.00 | 0.33 | 0.00 | 51 | 1013.3 |
| 20260507173044 | 16 | 310 | 4.8 | 16.1 | 0.00 | 0.33 | 0.00 | 48 | 1013.5 |
| 20260507171557 | 15 | 0 | 1.6 | 9.7 | 0.00 | 0.33 | 0.00 | 52 | 1013.7 |
| 20260507170050 | 16 | 316 | 1.6 | 14.5 | 0.00 | 0.33 | 0.00 | 54 | 1013.8 |
| 20260507164547 | 16 | 89 | 4.8 | 11.3 | 0.00 | 0.43 | 0.00 | 49 | 1014.0 |
| 20260507163045 | 15 | 180 | 3.2 | 11.3 | 0.00 | 0.43 | 0.00 | 50 | 1014.1 |
| 20260507161559 | 15 | 247 | 1.6 | 9.7 | 0.00 | 0.43 | 0.00 | 53 | 1014.2 |
| 20260507160044 | 14 | 347 | 1.6 | 14.5 | 0.00 | 0.43 | 0.00 | 51 | 1014.4 |
| 20260507154544 | 14 | 243 | 3.2 | 11.3 | 0.00 | 0.51 | 0.00 | 52 | 1014.4 |
| 20260507153042 | 14 | 27 | 3.2 | 17.7 | 0.00 | 0.51 | 0.00 | 53 | 1014.4 |
| 20260507151551 | 13 | 135 | 4.8 | 14.5 | 0.00 | 0.51 | 0.00 | 55 | 1014.3 |
| 20260507150050 | 13 | 72 | 3.2 | 14.5 | 0.00 | 0.51 | 0.00 | 54 | 1014.4 |
| 20260507144546 | 13 | 153 | 1.6 | 11.3 | 0.00 | 0.51 | 0.00 | 55 | 1014.6 |
| 20260507143052 | 13 | 322 | 1.6 | 9.7 | 0.00 | 0.51 | 0.00 | 63 | 1014.5 |
| 20260507141547 | 13 | 293 | 1.6 | 8.0 | 0.00 | 0.51 | 0.00 | 67 | 1014.6 |
| 20260507140046 | 13 | 359 | 1.6 | 6.4 | 0.00 | 0.51 | 0.00 | 70 | 1014.7 |
| 20260507134540 | 12 | 0 | 1.6 | 4.8 | 0.00 | 0.58 | 0.00 | 74 | 1014.9 |
| 20260507133047 | 12 | 0 | 0.0 | 3.2 | 0.00 | 0.58 | 0.00 | 76 | 1015.1 |
| 20260507131546 | 12 | 74 | 0.0 | 3.2 | 0.00 | 0.58 | 0.00 | 80 | 1015.1 |
| 20260507130059 | 11 | 0 | 0.0 | 1.6 | 0.00 | 0.58 | 0.00 | 86 | 1015.2 |
| 20260507124559 | 11 | 0 | 0.0 | 4.8 | 0.00 | 0.76 | 0.00 | 91 | 1015.1 |
| 20260507123046 | 10 | 258 | 0.0 | 1.6 | 0.00 | 0.76 | 0.00 | 93 | 1014.9 |
| 20260507121545 | 10 | 0 | 0.0 | 4.8 | 0.00 | 0.76 | 0.00 | 93 | 1015.1 |
| 20260507120046 | 10 | 218 | 1.6 | 4.8 | 0.00 | 0.76 | 0.00 | 93 | 1015.1 |
| 20260507114545 | 10 | 221 | 0.0 | 4.8 | 0.00 | 0.99 | 0.00 | 93 | 1015.1 |
| 20260507113040 | 10 | 245 | 0.0 | 3.2 | 0.00 | 0.99 | 0.00 | 93 | 1015.1 |